Regional Weather Roundup
Issued by NWS

Home | Current Version | Previous Version | Text Only | Print | Product List | Glossary Off
Versions: 1 2 3 4 5 6 7 8 9 10 11 12 13 14 15 16 17 18 19 20 21 22 23 24 25 26 27 28 29 30 31 32 33 34 35 36 37 38 39 40 41 42 43 44 45 46 47 48 49 50

000
ASUS45 KPSR 040400
RWRAZ

ARIZONA HOURLY REGIONAL WEATHER ROUNDUP
NATIONAL WEATHER SERVICE PHOENIX AZ
900 PM MST THU SEP 03 2015

NOTE: FAIR INDICATES FEW OR NO CLOUDS BELOW 12,000 FEET WITH NO
SIGNIFICANT WEATHER AND/OR OBSTRUCTIONS TO VISIBILITY.

AZZ001>003-036-040500-
NORTHWEST ARIZONA

CITY           SKY/WX    TMP DP  RH WIND       PRES   REMARKS
KINGMAN        CLEAR     77  38  24 S9        29.89R
$$

AZZ004>008-015-016-018-040500-
NORTH CENTRAL ARIZONA

CITY           SKY/WX    TMP DP  RH WIND       PRES   REMARKS
GRAND CANYON   PTCLDY    64  38  38 S8        30.15R
WILLIAMS       PTCLDY    66  41  39 S10       30.22R
PRESCOTT       MOCLDY    70  55  59 S9G18     30.07R
FLAGSTAFF      NOT AVBL
PAYSON         PTCLDY    68  55  64 VRB5      30.12S
PAGE           CLEAR     81  37  20 S8        29.91R
$$

AZZ009>014-017-040500-
NORTHEAST ARIZONA

CITY           SKY/WX    TMP DP  RH WIND       PRES   REMARKS
WINSLOW        NOT AVBL
SAINT JOHNS    CLOUDY    60  57  89 SE10      30.15F
WINDOW ROCK    CLOUDY    64  46  52 S9        30.19R
SHOW LOW       CLOUDY    63  52  67 S6        30.20R
$$

AZZ023-040500-
GREATER PHOENIX AREA

CITY           SKY/WX    TMP DP  RH WIND       PRES   REMARKS
PHOENIX        MOCLDY    78  64  61 E8        29.86S
DEER VALLEY    MOCLDY    78  62  57 E10       29.87F
SCOTTSDALE     PTCLDY    78  63  59 E8        29.91S
MESA-GATEWAY   MOCLDY    77  64  65 E12       29.91S
CHANDLER       MOCLDY    77  66  69 NE12      29.86F
$$

AZZ027-028-040500-
SOUTHWEST MARICOPA COUNTY AND PINAL COUNTY

CITY           SKY/WX    TMP DP  RH WIND       PRES   REMARKS
CASA GRANDE    MOCLDY    73  63  68 NE10      29.87R
$$

AZZ503-504-507>509-040500-
SOUTHEAST ARIZONA

CITY           SKY/WX    TMP DP  RH WIND       PRES   REMARKS
TUCSON         CLOUDY    70  64  81 SE3       29.97F
DAVIS-MONTHAN  MOCLDY    69  66  91 S2        29.95S
NOGALES        MOCLDY    66  63  90 CALM      30.06R FOG
SIERRA VISTA   MOCLDY    64  61  91 S9        30.10F
SAFFORD        CLOUDY    76  57  51 E8        29.97R
$$

AZZ020-021-025-026-031-040500-
SOUTHWEST ARIZONA

CITY           SKY/WX    TMP DP  RH WIND       PRES   REMARKS
YUMA           NOT AVBL
$$

CAZ031-033-041-043-047-048-061-040500-
SOUTHERN CALIFORNIA

CITY           SKY/WX    TMP DP  RH WIND       PRES   REMARKS
DOWNTOWN L.A.  CLEAR     69  56  62 CALM      29.84R
L.A. AIRPORT   CLEAR     68  56  65 W5        29.85R
SAN DIEGO      PTCLDY    70  58  65 W5        29.88R
BURBANK        CLEAR     68  56  65 S6        29.85R
ONTARIO        CLEAR     68  57  68 W9        29.85R
RIVERSIDE      CLEAR     68  57  68 W6        29.86R
PALM SPRINGS   CLEAR     88  44  21 NW15G25   29.72R
EL CENTRO NAS  CLEAR     91  44  19 S8        29.70R
IMPERIAL       CLEAR     93  45  19 S6        29.69R
BLYTHE         CLEAR     93  38  14 S15G21    29.70R
$$

NVZ020-UTZ003-040500-
SOUTHERN NEVADA-UTAH

CITY           SKY/WX    TMP DP  RH WIND       PRES   REMARKS
LAS VEGAS      NOT AVBL
SALT LAKE CITY PTCLDY    83  32  16 S17G25    29.77R
$$

NMZ009-TXZ055-040500-
NEW MEXICO-WEST TEXAS

CITY           SKY/WX    TMP DP  RH WIND       PRES   REMARKS
ALBUQUERQUE    CLOUDY    78  45  30 S15       30.09R
EL PASO        CLOUDY    83  53  35 NW9       30.00S
$$


........................KEY........................
SKY/WX - SKY CONDITION/WEATHER
TMP    - TEMPERATURE IN FAHRENHEIT
DP     - DEW POINT IN FAHRENHEIT
RH     - RELATIVE HUMIDITY IN PERCENT
WIND   - DIRECTION AND SPEED IN MILES PER HOUR (MPH)
VRB    - VARIABLE WIND DIRECTION
PRES   - MEAN SEA LEVEL PRESSURE IN INCHES OF MERCURY
         F - FALLING PRESSURE   R - RISING PRESSURE
         S - STEADY PRESSURE
VSB    - VISIBILITY IN MILES
HX     - HEAT INDEX IN FAHRENHEIT
WCI    - WIND CHILL INDEX IN FAHRENHEIT
TC     - TEMPERATURE IN CELSIUS WHICH IS ALSO KNOWN AS
         TEMPERATURE IN CENTIGRADE
AFB    - AIR FORCE BASE
         LUKE AFB IS LUKE AIR FORCE BASE
         DAVIS-MONTHAN IS DAVIS-MONTHAN AIR FORCE BASE
NAS    - NAVAL AIR STATION
         EL CENTRO NAS IS EL CENTRO NAVAL AIR STATION
N/A    - NOT AVAILABLE



USA.gov is the U.S. government's official web portal to all federal, state and local government web resources and services.